Content
SEND FEEDBACK

Daily
Averages
Monthly
Summary
United States of America

MANGILAO, GUAM


Home > North America > United States > Guam
Elevation: 18 meters     Latitude: 13 27N     Longitude: 144 49E

WEATHER
 
SELECT A DAY
Number of Records: 337,590;   Date Range: 1/1/95 - 4/18/14
 
SHARE

PRINT THIS DATA

[ ← Previous Day ]
WEATHER ALMANAC - 21 SEPTEMBER, 2013
[ Next Day → ]
[ °F ]   °C
Weather ElementAverageHighLow
Temperature24.8 °C26 °C (3:18 am) (4:17 am)
Dewpoint24.1 °C25.3 °C (12:58 pm) (7:00 pm)
Humidity95.7 %100 % (12:15 am)89 % (1:34 pm)
Barometer990.5 hPa1003.7 hPa (9:38 am) (7:00 pm)
Wind Speed28.5 km/h48.1 km/h (1:10 pm)
Wind Gust59.2 km/h (1:10 pm)
Weather ElementAverage
Visibility14 km
Wind DirectionWSW (256.3 °)

Weather ElementTotal
Precipitation46.74 mm
Heating Degree Days14.2 (Base 18.3)
Averaged from 100 records on 21 September, 2013
WEATHER CONDITIONS BREAKOUT
WIND DIRECTION BREAKOUT
WEATHER BY HOUR - 21 SEPTEMBER, 2013
[ °F ]   °C
Local TimeTemperatureDewpointHumidityBarometerVisibilityWind DirectionWind SpeedGust SpeedPrecipitationEventsConditions
12:15 AM24 °C24 °C100 %1000.7 hPa12.9 kmWSW (240°)9.3 km/hRainLight Rain
12:58 AM24.3 °C23.6 °C96 %995.9 hPa16.1 kmWSW (250°)14.8 km/h1.02 mmRainLight Rain
1:23 AM24 °C24 °C100 %1000 hPa16.1 kmWSW (250°)14.8 km/hRainRain
1:28 AM24 °C24 °C100 %1000 hPa16.1 kmWSW (250°)16.7 km/hRainLight Rain
1:43 AM24 °C24 °C100 %999.7 hPa16.1 kmWSW (250°)22.2 km/hRainLight Rain
1:58 AM24.7 °C24.4 °C98 %995.6 hPa16.1 kmWSW (250°)20.4 km/h1.27 mmRainLight Rain
2:09 AM25 °C24 °C94 %999.7 hPa16.1 kmWest (260°)25.9 km/hScattered Clouds
2:20 AM25 °C25 °C100 %999.3 hPa16.1 kmWest (260°)27.8 km/hLight Drizzle
2:38 AM25 °C25 °C100 %999.3 hPa16.1 kmWest (260°)22.2 km/hPartly Cloudy
2:53 AM25 °C25 °C100 %999.3 hPa16.1 kmWest (260°)22.2 km/hMostly Cloudy
2:58 AM25.3 °C25 °C98 %995.3 hPa16.1 kmWest (260°)20.4 km/h0 mmMostly Cloudy
3:08 AM25 °C25 °C100 %999.3 hPa16.1 kmWSW (250°)24.1 km/hOvercast
3:18 AM26 °C25 °C94 %999.7 hPa16.1 kmWest (260°)29.6 km/hMostly Cloudy
3:19 AM26 °C25 °C94 %999.7 hPa16.1 kmWest (260°)27.8 km/hLight Drizzle
3:24 AM26 °C25 °C94 %999.7 hPa16.1 kmWest (260°)27.8 km/hLight Drizzle
3:27 AM26 °C25 °C94 %999.3 hPa16.1 kmWSW (250°)25.9 km/hMostly Cloudy
3:32 AM26 °C25 °C94 %999.3 hPa16.1 kmWest (260°)25.9 km/hMostly Cloudy
3:47 AM26 °C25 °C94 %999.7 hPa16.1 kmWest (270°)20.4 km/hMostly Cloudy
3:52 AM26 °C25 °C94 %1000 hPa16.1 kmWest (270°)20.4 km/hMostly Cloudy
3:57 AM26 °C25 °C94 %1000 hPa16.1 kmWest (270°)24.1 km/hMostly Cloudy
3:58 AM26 °C25 °C94 %995.9 hPa16.1 kmWest (270°)24.1 km/h0.25 mmMostly Cloudy
4:03 AM26 °C25 °C94 %999.7 hPa16.1 kmWest (280°)24.1 km/hMostly Cloudy
4:09 AM26 °C25 °C94 %1000 hPa16.1 kmWest (280°)29.6 km/hLight Drizzle
4:17 AM-17.8 °C-17.8 °CWest (280°)29.6 km/h
4:18 AM26 °C25 °C94 %1000.3 hPa16.1 kmWest (280°)25.9 km/hRainLight Rain
4:28 AM26 °C25 °C94 %1000.3 hPa12.9 kmWest (280°)24.1 km/hRainHeavy Rain
4:58 AM25.1 °C24.8 °C98 %996.6 hPa9.7 kmWest (280°)25.9 km/h5.33 mmRainHeavy Rain
5:08 AM25 °C24 °C94 %1000.7 hPa11.3 kmWNW (290°)35.2 km/h42.6 km/hRainHeavy Rain
5:18 AM25 °C24 °C94 %1000.7 hPa6.4 kmWest (280°)22.2 km/hRainHeavy Rain
5:23 AM25 °C24 °C94 %1000.7 hPa6.4 kmWest (260°)25.9 km/h38.9 km/hRainHeavy Rain
5:33 AM25 °C24 °C94 %1000.3 hPa8 kmWest (260°)25.9 km/h38.9 km/hRainHeavy Rain
5:38 AM25 °C24 °C94 %1000.3 hPa11.3 kmWSW (250°)35.2 km/h44.4 km/hRainRain
5:48 AM25 °C24 °C94 %1000 hPa14.5 kmWSW (250°)31.5 km/hRainLight Rain
5:53 AM25 °C24 °C94 %1000.3 hPa12.9 kmWSW (250°)29.6 km/hRainRain
5:58 AM24.5 °C24 °C97 %996.6 hPa14.5 kmWest (260°)31.5 km/h9.4 mmRainRain
6:03 AM25 °C24 °C94 %1000.7 hPa16.1 kmWest (260°)29.6 km/hRainRain
6:08 AM24 °C24 °C100 %1000.7 hPa16.1 kmWest (260°)29.6 km/hRainRain
6:28 AM24 °C23 °C94 %1001 hPa16.1 kmWest (270°)25.9 km/hRainRain
6:48 AM24 °C24 °C100 %1001 hPa9.7 kmWSW (250°)22.2 km/hRainRain
6:58 AM24.3 °C24 °C98 %997 hPa8 kmWSW (240°)24.1 km/h4.83 mmRainHeavy Rain
7:03 AM24 °C24 °C100 %1001.4 hPa8 kmWSW (240°)27.8 km/hRainHeavy Rain
7:18 AM24 °C24 °C100 %1001.4 hPa6.4 kmWSW (250°)24.1 km/h38.9 km/hRainLight Rain
7:38 AM25 °C24 °C94 %1002 hPa8 kmWest (260°)27.8 km/h38.9 km/hRainRain
7:48 AM24 °C23 °C94 %1002 hPa6.4 kmWest (260°)27.8 km/h51.8 km/hRainRain
7:58 AM24 °C23.2 °C95 %998.3 hPa14.5 kmWest (260°)24.1 km/h38.9 km/h6.6 mmRainRain
8:08 AM24 °C23 °C94 %1002.4 hPa12.9 kmWSW (250°)33.3 km/h42.6 km/hRainRain
8:18 AM24 °C24 °C100 %1002.4 hPa9.7 kmWSW (250°)42.6 km/h50.1 km/hRainRain
8:38 AM24 °C24 °C100 %1002.7 hPa16.1 kmWSW (250°)35.2 km/h46.3 km/hRainLight Rain
8:48 AM24 °C23 °C94 %1002.7 hPa11.3 kmWest (260°)31.5 km/hRainRain
8:58 AM24.4 °C23.8 °C96 %998.6 hPa9.7 kmWSW (250°)31.5 km/h4.57 mmRainHeavy Rain
9:08 AM25 °C24 °C94 %1003 hPa12.9 kmWest (260°)29.6 km/h42.6 km/hRainLight Rain
9:18 AM25 °C24 °C94 %1003.4 hPa8 kmWSW (250°)29.6 km/h40.7 km/hRainHeavy Rain
9:28 AM25 °C24 °C94 %1003 hPa11.3 kmWSW (250°)29.6 km/hRainRain
9:33 AM25 °C25 °C100 %1003.4 hPa8 kmWSW (250°)27.8 km/hRainRain
9:38 AM25 °C25 °C100 %1003.7 hPa6.4 kmWest (270°)33.3 km/h40.7 km/hRainRain
9:58 AM25 °C24.4 °C96 %999.7 hPa12.9 kmWSW (250°)31.5 km/h40.7 km/h5.84 mmRainLight Rain
10:08 AM25 °C24 °C94 %1003.4 hPa12.9 kmWSW (240°)37 km/hRainLight Rain
10:10 AM25 °C24 °C94 %1003.7 hPa16.1 kmWSW (250°)31.5 km/hOvercast
10:25 AM25 °C24 °C94 %1003.4 hPa16.1 kmWSW (250°)29.6 km/hOvercast
10:28 AM25 °C24 °C94 %1003.4 hPa14.5 kmWSW (240°)31.5 km/hRainLight Rain
10:46 AM25 °C25 °C100 %1003.4 hPa12.9 kmWSW (240°)31.5 km/hOvercast
10:56 AM25 °C25 °C100 %1003.4 hPa12.9 kmSW (230°)25.9 km/hOvercast
10:57 AM25 °C25 °C100 %1003.4 hPa11.3 kmSW (230°)25.9 km/hRainLight Rain
10:58 AM25.1 °C24.6 °C97 %999.3 hPa11.3 kmSW (230°)27.8 km/h1.78 mmRainLight Rain
11:23 AM25 °C25 °C100 %1003 hPa9.7 kmSW (230°)25.9 km/h35.2 km/hRainLight Rain
11:53 AM25 °C25 °C100 %1002.7 hPa8 kmWSW (250°)25.9 km/h37 km/hRainLight Rain
11:58 AM25.2 °C24.7 °C97 %998.6 hPa9.7 kmWest (260°)29.6 km/h37 km/h2.79 mmRainLight Rain
12:10 PM25 °C25 °C100 %1002.7 hPa16.1 kmWSW (250°)29.6 km/h40.7 km/hOvercast
12:20 PM25 °C25 °C100 %1002.4 hPa16.1 kmWest (260°)25.9 km/hOvercast
12:25 PM25 °C25 °C100 %1002.4 hPa16.1 kmWest (260°)29.6 km/hOvercast
12:35 PM26 °C25 °C94 %1002 hPa16.1 kmWest (270°)33.3 km/h44.4 km/hRainLight Rain
12:51 PM26 °C25 °C94 %1002 hPa16.1 kmWest (270°)35.2 km/h53.8 km/hMostly Cloudy
12:54 PM26 °C25 °C94 %1001.7 hPa16.1 kmWest (270°)38.9 km/h50.1 km/hRainLight Rain
12:58 PM25.9 °C25.3 °C96 %997.6 hPa16.1 kmWest (270°)35.2 km/h50.1 km/h1.27 mmRainLight Rain
1:10 PM26 °C25 °C94 %1001.4 hPa16.1 kmWest (280°)48.1 km/h59.2 km/hMostly Cloudy
1:15 PM26 °C25 °C94 %1001.4 hPa16.1 kmWest (280°)40.7 km/h59.2 km/hScattered Clouds
1:34 PM26 °C24 °C89 %1001.4 hPa16.1 kmWest (280°)46.3 km/h59.2 km/hRainLight Rain
1:55 PM26 °C25 °C94 %1001.4 hPa16.1 kmWest (280°)42.6 km/h55.5 km/hClear
1:58 PM25.7 °C24.9 °C95 %997.3 hPa16.1 kmWest (280°)38.9 km/h55.5 km/h0.51 mmClear
1:59 PM26 °C25 °C94 %1001.4 hPa16.1 kmWest (270°)37 km/h55.5 km/hRainLight Rain
2:10 PM26 °C25 °C94 %1001.7 hPa16.1 kmWest (280°)38.9 km/h51.8 km/hClear
2:21 PM26 °C25 °C94 %1001.7 hPa16.1 kmWest (280°)37 km/h53.8 km/hRainLight Rain
2:30 PM26 °C25 °C94 %1001.7 hPa16.1 kmWest (270°)33.3 km/h51.8 km/hPartly Cloudy
2:58 PM25.8 °C24.9 °C95 %997.6 hPa16.1 kmWest (270°)33.3 km/h44.4 km/h0.25 mmPartly Cloudy
3:03 PM26 °C25 °C94 %1001.7 hPa16.1 kmWest (270°)29.6 km/h44.4 km/hRainLight Rain
3:23 PM26 °C25 °C94 %1001.7 hPa14.5 kmWest (260°)35.2 km/h46.3 km/hRainLight Rain
3:28 PM26 °C25 °C94 %1001.7 hPa14.5 kmWSW (250°)35.2 km/h46.3 km/hRainLight Rain
3:54 PM26 °C25 °C94 %1002 hPa14.5 kmSW (220°)27.8 km/h31.5 km/hMostly Cloudy
3:58 PM25.6 °C24.8 °C95 %998 hPa16.1 kmSW (230°)31.5 km/h40.7 km/h1.02 mmMostly Cloudy
4:03 PM26 °C25 °C94 %1002 hPa16.1 kmWSW (240°)24.1 km/h40.7 km/hScattered Clouds
4:58 PM25.8 °C25 °C95 %998.3 hPa16.1 kmWSW (240°)24.1 km/hClear
5:58 PM25.8 °C24.6 °C93 %998.3 hPa16.1 kmWSW (240°)27.8 km/hClear
6:58 PM25.7 °C24.5 °C93 %999.3 hPa16.1 kmWSW (240°)24.1 km/hScattered Clouds
7:08 PM26 °C24 °C89 %1003.7 hPa16.1 kmWSW (240°)25.9 km/hRainLight Rain
7:18 PM26 °C24 °C89 %1003.7 hPa16.1 kmWSW (240°)24.1 km/hClear
7:58 PM25.7 °C24.5 °C93 %999.7 hPa16.1 kmSW (230°)24.1 km/h0 mmMostly Cloudy
8:58 PM25.9 °C24.6 °C92 %999.7 hPa16.1 kmWSW (240°)24.1 km/hScattered Clouds
9:58 PM25.7 °C24.9 °C95 %1000.3 hPa16.1 kmWSW (240°)18.5 km/hPartly Cloudy
10:58 PM25.8 °C24.8 °C94 %1000 hPa16.1 kmSW (220°)14.8 km/hClear
11:58 PM25.7 °C24.9 °C95 %999.7 hPa16.1 kmSW (230°)22.2 km/hMostly Cloudy
Hourly data recorded from PGUA, located 5.71 kilometers away from Mangilao, Guam







STORIES FROM OUR PARTNERS